Location: Gleizolles
(44.4833°N, 6.7667°E)
Time: 16:29:39
(UTC+00:00)

Tiros 1 - Pass Details

Date: 30 June 2024
Orbit: 624 x 656 km, 48.4° (Epoch: 13 July)

Event Time Altitude Azimuth Distance (km) Brightness Sun altitude
Rises 00:10:07 0° 285° (WNW) 2,904 10.6 -21.9°
Reaches altitude 10° 00:12:29 10° 290° (WNW) 1,998 9.8 -21.9°
Maximum altitude 00:17:00 56° 9° (N) 749 7.7 -21.7°
Drops below altitude 10° 00:21:32 10° 88° (E) 2,007 9.8 -21.6°
Sets 00:23:54 0° 93° (E) 2,919 10.6 -21.5°
